| time (UTC) | temp F | wind direction | speed knots | gust knots | rain 1hr in | rain 24hr in | rain mn in | humidity % | barometer mb |
| 20260505140322 | 84 | 127 | 4.3 | 8.7 | 0.00 | 0.00 | 0.00 | 84 | 1022.1 |
| 20260505130246 | 83 | 124 | 3.5 | 7.0 | 0.00 | 0.00 | 0.00 | 87 | 1021.7 |
| 20260505124736 | 82 | 148 | 5.2 | 7.0 | 0.00 | 0.00 | 0.00 | 87 | 1021.6 |
| 20260505124233 | 83 | 118 | 5.2 | 8.7 | 0.00 | 0.00 | 0.00 | 86 | 1021.5 |
| 20260505123728 | 83 | 96 | 3.5 | 6.1 | 0.00 | 0.00 | 0.00 | 85 | 1021.6 |
| 20260505123226 | 84 | 148 | 3.5 | 7.8 | 0.00 | 0.00 | 0.00 | 85 | 1021.6 |
| 20260505122722 | 83 | 123 | 1.7 | 7.0 | 0.00 | 0.00 | 0.00 | 87 | 1021.5 |
| 20260505122220 | 81 | 107 | 0.9 | 3.5 | 0.00 | 0.00 | 0.00 | 89 | 1021.5 |
| 20260505121716 | 82 | 115 | 3.5 | 6.1 | 0.00 | 0.00 | 0.00 | 88 | 1021.3 |
| 20260505121213 | 82 | 113 | 1.7 | 6.1 | 0.00 | 0.00 | 0.00 | 88 | 1021.4 |
| 20260505120709 | 82 | 103 | 1.7 | 6.1 | 0.00 | 0.00 | 0.00 | 87 | 1021.4 |
| 20260505120205 | 82 | 88 | 0.9 | 1.7 | 0.00 | 0.00 | 0.00 | 87 | 1021.2 |
| 20260505115658 | 82 | 186 | 3.5 | 6.1 | 0.00 | 0.00 | 0.00 | 87 | 1021.3 |
| 20260505115157 | 83 | 116 | 3.5 | 7.0 | 0.00 | 0.00 | 0.00 | 86 | 1021.2 |
| 20260505114654 | 83 | 116 | 3.5 | 6.1 | 0.00 | 0.00 | 0.00 | 85 | 1021.2 |
| 20260505114149 | 83 | 108 | 3.5 | 5.2 | 0.00 | 0.00 | 0.00 | 86 | 1021.2 |
| 20260505113646 | 83 | 132 | 1.7 | 3.5 | 0.00 | 0.00 | 0.00 | 87 | 1021.2 |
| 20260505113143 | 83 | 76 | 2.6 | 3.5 | 0.00 | 0.00 | 0.00 | 86 | 1021.1 |
| 20260505112639 | 83 | 104 | 0.0 | 1.7 | 0.00 | 0.00 | 0.00 | 86 | 1021.2 |
| 20260505112137 | 82 | 180 | 1.7 | 6.1 | 0.00 | 0.00 | 0.00 | 87 | 1020.9 |
| 20260505111631 | 82 | 155 | 3.5 | 3.5 | 0.00 | 0.00 | 0.00 | 86 | 1020.9 |
| 20260505111128 | 82 | 133 | 1.7 | 2.6 | 0.00 | 0.00 | 0.00 | 88 | 1020.8 |
| 20260505110624 | 81 | 141 | 1.7 | 5.2 | 0.00 | 0.00 | 0.00 | 89 | 1020.5 |
| 20260505110122 | 80 | 137 | 1.7 | 3.5 | 0.00 | 0.00 | 0.00 | 91 | 1020.8 |
| 20260505102057 | 76 | 133 | 0.0 | 1.7 | 0.00 | 0.00 | 0.00 | 98 | 1020.3 |
| 20260505101556 | 76 | 126 | 0.0 | 1.7 | 0.00 | 0.00 | 0.00 | 98 | 1020.1 |
| 20260505101051 | 76 | 130 | 0.9 | 1.7 | 0.00 | 0.00 | 0.00 | 98 | 1020.1 |
| 20260505100548 | 76 | 109 | 0.0 | 1.7 | 0.00 | 0.00 | 0.00 | 98 | 1020.0 |
| 20260505100045 | 76 | 126 | 0.9 | 1.7 | 0.00 | 0.00 | 0.00 | 98 | 1020.3 |
| 20260505095541 | 76 | 123 | 0.9 | 1.7 | 0.00 | 0.00 | 0.00 | 98 | 1020.0 |
| 20260505095038 | 76 | 144 | 0.0 | 0.9 | 0.00 | 0.00 | 0.00 | 98 | 1020.1 |
| 20260505094534 | 76 | 129 | 0.0 | 1.7 | 0.00 | 0.00 | 0.00 | 98 | 1020.0 |
| 20260505094031 | 76 | 133 | 0.9 | 1.7 | 0.00 | 0.00 | 0.00 | 98 | 1019.8 |
| 20260505093527 | 76 | 122 | 0.0 | 0.0 | 0.00 | 0.00 | 0.00 | 98 | 1019.9 |
| 20260505093025 | 76 | 116 | 0.0 | 0.0 | 0.00 | 0.00 | 0.00 | 98 | 1019.9 |
| 20260505092522 | 76 | 115 | 0.0 | 0.0 | 0.00 | 0.00 | 0.00 | 98 | 1020.0 |
| 20260505092020 | 76 | 124 | 0.0 | 0.0 | 0.00 | 0.00 | 0.00 | 98 | 1020.1 |
| 20260505091517 | 76 | 140 | 0.0 | 0.0 | 0.00 | 0.00 | 0.00 | 98 | 1019.9 |
| 20260505091015 | 76 | 142 | 0.0 | 0.0 | 0.00 | 0.00 | 0.00 | 98 | 1019.8 |
| 20260505090513 | 76 | 129 | 0.0 | 0.9 | 0.00 | 0.00 | 0.00 | 98 | 1020.0 |
| 20260505090010 | 76 | 120 | 0.0 | 0.0 | 0.00 | 0.00 | 0.00 | 98 | 1019.7 |
| 20260505085508 | 76 | 108 | 0.0 | 0.0 | 0.00 | 0.00 | 0.00 | 98 | 1019.8 |
| 20260505085006 | 77 | 107 | 0.0 | 0.0 | 0.00 | 0.00 | 0.00 | 99 | 1019.7 |
| 20260505084504 | 76 | 112 | 0.0 | 0.0 | 0.00 | 0.00 | 0.00 | 99 | 1019.6 |
| 20260505084002 | 76 | 111 | 0.0 | 0.0 | 0.00 | 0.00 | 0.00 | 99 | 1019.7 |
| 20260505083458 | 76 | 112 | 0.0 | 0.0 | 0.00 | 0.00 | 0.00 | 99 | 1019.5 |
| 20260505082955 | 76 | 110 | 0.0 | 0.0 | 0.00 | 0.00 | 0.00 | 99 | 1019.6 |
| 20260505082450 | 76 | 110 | 0.0 | 0.0 | 0.00 | 0.00 | 0.00 | 99 | 1019.6 |
| 20260505081948 | 76 | 106 | 0.0 | 0.0 | 0.00 | 0.00 | 0.00 | 99 | 1019.6 |
| 20260505081444 | 76 | 128 | 0.0 | 0.0 | 0.00 | 0.00 | 0.00 | 99 | 1019.5 |
| 20260505080941 | 76 | 134 | 0.0 | 0.0 | 0.00 | 0.00 | 0.00 | 99 | 1019.5 |
| 20260505080437 | 76 | 136 | 0.0 | 0.0 | 0.00 | 0.00 | 0.00 | 99 | 1019.4 |
| 20260505075933 | 76 | 137 | 0.0 | 0.0 | 0.00 | 0.00 | 0.00 | 99 | 1019.4 |
| 20260505075430 | 76 | 134 | 0.0 | 0.0 | 0.00 | 0.00 | 0.00 | 99 | 1019.5 |
| 20260505074927 | 76 | 135 | 0.0 | 0.0 | 0.00 | 0.00 | 0.00 | 99 | 1019.3 |
| 20260505074425 | 76 | 132 | 0.0 | 0.0 | 0.00 | 0.00 | 0.00 | 98 | 1019.3 |
| 20260505073921 | 76 | 131 | 0.0 | 0.0 | 0.00 | 0.00 | 0.00 | 98 | 1019.4 |
| 20260505073419 | 76 | 127 | 0.0 | 0.0 | 0.00 | 0.00 | 0.00 | 98 | 1019.4 |
| 20260505072916 | 77 | 125 | 0.0 | 0.0 | 0.00 | 0.00 | 0.00 | 98 | 1019.4 |
| 20260505072412 | 77 | 125 | 0.0 | 0.0 | 0.00 | 0.00 | 0.00 | 98 | 1019.6 |
| 20260505071909 | 77 | 130 | 0.0 | 0.0 | 0.00 | 0.00 | 0.00 | 98 | 1019.5 |
| 20260505071405 | 77 | 134 | 0.0 | 0.0 | 0.00 | 0.00 | 0.00 | 98 | 1019.4 |
| 20260505070903 | 77 | 129 | 0.0 | 0.0 | 0.00 | 0.00 | 0.00 | 98 | 1019.5 |
| 20260505070359 | 77 | 130 | 0.0 | 0.0 | 0.00 | 0.00 | 0.00 | 98 | 1019.2 |
| 20260505065855 | 77 | 119 | 0.0 | 0.0 | 0.00 | 0.00 | 0.00 | 98 | 1019.3 |
| 20260505065351 | 77 | 134 | 0.0 | 0.0 | 0.00 | 0.00 | 0.00 | 98 | 1019.5 |
| 20260505064848 | 77 | 117 | 0.0 | 0.0 | 0.00 | 0.00 | 0.00 | 98 | 1019.3 |
| 20260505064345 | 77 | 122 | 0.0 | 0.0 | 0.00 | 0.00 | 0.00 | 98 | 1019.6 |
| 20260505063844 | 77 | 123 | 0.0 | 0.9 | 0.00 | 0.00 | 0.00 | 98 | 1019.5 |
| 20260505063339 | 77 | 125 | 0.0 | 0.0 | 0.00 | 0.00 | 0.00 | 98 | 1019.6 |
| 20260505062836 | 77 | 140 | 0.0 | 0.0 | 0.00 | 0.00 | 0.00 | 98 | 1019.8 |
| 20260505062334 | 77 | 126 | 0.0 | 0.0 | 0.00 | 0.00 | 0.00 | 98 | 1019.7 |
| 20260505061830 | 77 | 126 | 0.0 | 0.0 | 0.00 | 0.00 | 0.00 | 98 | 1019.7 |
| 20260505061328 | 77 | 126 | 0.0 | 0.0 | 0.00 | 0.00 | 0.00 | 98 | 1019.8 |
| 20260505060826 | 77 | 125 | 0.0 | 0.0 | 0.00 | 0.00 | 0.00 | 97 | 1019.7 |
| 20260505060322 | 77 | 131 | 0.0 | 0.0 | 0.00 | 0.00 | 0.00 | 98 | 1019.8 |
| 20260505055818 | 77 | 125 | 0.0 | 0.0 | 0.00 | 0.00 | 0.00 | 98 | 1019.9 |
| 20260505055314 | 77 | 143 | 0.0 | 1.7 | 0.00 | 0.00 | 0.00 | 98 | 1020.0 |
| 20260505054812 | 77 | 133 | 0.0 | 0.0 | 0.00 | 0.00 | 0.00 | 98 | 1020.1 |
| 20260505054309 | 77 | 151 | 0.0 | 0.9 | 0.00 | 0.00 | 0.00 | 98 | 1019.9 |
| 20260505053807 | 77 | 139 | 0.0 | 0.0 | 0.00 | 0.00 | 0.00 | 98 | 1020.2 |
| 20260505053304 | 77 | 140 | 0.0 | 0.0 | 0.00 | 0.00 | 0.00 | 98 | 1020.1 |
| 20260505052801 | 77 | 144 | 0.0 | 0.0 | 0.00 | 0.00 | 0.00 | 98 | 1020.3 |
| 20260505052258 | 77 | 163 | 0.0 | 0.0 | 0.00 | 0.00 | 0.00 | 98 | 1020.1 |
| 20260505051754 | 77 | 123 | 0.0 | 0.0 | 0.00 | 0.00 | 0.00 | 98 | 1020.4 |
| 20260505051253 | 77 | 124 | 0.0 | 0.0 | 0.00 | 0.00 | 0.00 | 98 | 1020.4 |
| 20260505050750 | 77 | 114 | 0.0 | 0.0 | 0.00 | 0.00 | 0.00 | 98 | 1020.4 |
| 20260505050249 | 77 | 118 | 0.0 | 0.0 | 0.00 | 0.00 | 0.00 | 98 | 1020.5 |
| 20260505041718 | 77 | 120 | 0.0 | 0.0 | 0.00 | 0.00 | 0.00 | 98 | 1020.7 |
| 20260505041215 | 77 | 126 | 0.0 | 0.0 | 0.00 | 0.00 | 0.00 | 98 | 1021.0 |
| 20260505040713 | 77 | 121 | 0.0 | 0.9 | 0.00 | 0.00 | 0.00 | 98 | 1021.0 |
| 20260505040210 | 77 | 135 | 0.0 | 0.9 | 0.00 | 0.00 | 0.00 | 98 | 1021.0 |
| 20260505035707 | 78 | 146 | 0.9 | 0.9 | 0.00 | 0.23 | 0.23 | 98 | 1021.0 |
| 20260505035203 | 78 | 156 | 0.9 | 1.7 | 0.00 | 0.23 | 0.23 | 98 | 1021.0 |
| 20260505034659 | 77 | 145 | 0.0 | 1.7 | 0.00 | 0.23 | 0.23 | 98 | 1021.1 |
| 20260505034156 | 78 | 131 | 0.9 | 1.7 | 0.00 | 0.23 | 0.23 | 98 | 1021.3 |
| 20260505033652 | 78 | 166 | 0.9 | 1.7 | 0.00 | 0.23 | 0.23 | 98 | 1021.1 |
| 20260505033151 | 78 | 121 | 0.0 | 0.0 | 0.00 | 0.23 | 0.23 | 98 | 1021.1 |
| 20260505032649 | 78 | 110 | 0.0 | 0.0 | 0.00 | 0.23 | 0.23 | 98 | 1021.2 |
| 20260505032144 | 78 | 110 | 0.0 | 0.0 | 0.00 | 0.23 | 0.23 | 98 | 1021.2 |
| 20260505031642 | 78 | 109 | 0.0 | 0.0 | 0.00 | 0.23 | 0.23 | 98 | 1021.2 |
| 20260505031138 | 78 | 110 | 0.0 | 0.0 | 0.00 | 0.23 | 0.23 | 98 | 1021.2 |
| 20260505030635 | 78 | 110 | 0.0 | 0.0 | 0.00 | 0.23 | 0.23 | 98 | 1021.1 |
| 20260505030131 | 78 | 132 | 0.0 | 0.0 | 0.00 | 0.23 | 0.23 | 98 | 1021.3 |
| 20260505025627 | 78 | 112 | 0.0 | 0.0 | 0.00 | 0.23 | 0.23 | 98 | 1021.3 |
| 20260505025126 | 78 | 138 | 0.0 | 0.0 | 0.00 | 0.23 | 0.23 | 97 | 1021.0 |
| 20260505024623 | 78 | 129 | 0.0 | 0.0 | 0.00 | 0.23 | 0.23 | 97 | 1021.2 |
| 20260505024120 | 78 | 133 | 0.0 | 0.9 | 0.00 | 0.23 | 0.23 | 97 | 1021.2 |
| 20260505023617 | 78 | 130 | 0.0 | 0.0 | 0.00 | 0.23 | 0.23 | 97 | 1021.1 |
| 20260505023115 | 79 | 124 | 0.0 | 0.0 | 0.00 | 0.23 | 0.23 | 97 | 1021.1 |
| 20260505022612 | 78 | 103 | 0.0 | 0.0 | 0.00 | 0.23 | 0.23 | 97 | 1021.0 |
| 20260505022109 | 78 | 105 | 0.0 | 0.0 | 0.00 | 0.23 | 0.23 | 97 | 1021.0 |
| 20260505021605 | 78 | 111 | 0.0 | 0.0 | 0.00 | 0.23 | 0.23 | 97 | 1021.1 |
| 20260505021102 | 78 | 152 | 0.0 | 0.0 | 0.00 | 0.23 | 0.23 | 97 | 1021.0 |
| 20260505020603 | 78 | 122 | 0.0 | 1.7 | 0.00 | 0.23 | 0.23 | 97 | 1021.1 |
| 20260505020059 | 79 | 143 | 0.0 | 0.0 | 0.00 | 0.23 | 0.23 | 97 | 1021.1 |
| 20260505015556 | 79 | 127 | 0.0 | 0.9 | 0.00 | 0.23 | 0.23 | 97 | 1021.1 |
| 20260505015053 | 79 | 130 | 0.0 | 0.9 | 0.00 | 0.23 | 0.23 | 97 | 1021.0 |
| 20260505014549 | 79 | 124 | 2.6 | 3.5 | 0.00 | 0.23 | 0.23 | 96 | 1020.8 |
| 20260505014047 | 79 | 82 | 0.9 | 6.1 | 0.00 | 0.23 | 0.23 | 96 | 1020.7 |
| 20260505013544 | 79 | 109 | 1.7 | 3.5 | 0.00 | 0.23 | 0.23 | 97 | 1020.6 |
| 20260505013041 | 79 | 131 | 1.7 | 3.5 | 0.12 | 0.23 | 0.23 | 97 | 1020.7 |
| 20260505012539 | 79 | 128 | 2.6 | 2.6 | 0.19 | 0.23 | 0.23 | 96 | 1020.7 |
| 20260505012036 | 79 | 144 | 0.9 | 0.9 | 0.19 | 0.21 | 0.21 | 96 | 1020.5 |
| 20260505011537 | 79 | 133 | 0.9 | 0.9 | 0.12 | 0.20 | 0.20 | 95 | 1020.4 |
| 20260505011034 | 79 | 117 | 0.0 | 1.7 | 0.00 | 0.18 | 0.18 | 95 | 1020.4 |
| 20260505010529 | 79 | 118 | 0.0 | 2.6 | 0.00 | 0.18 | 0.18 | 96 | 1020.5 |
| 20260505010026 | 79 | 147 | 0.9 | 1.7 | 0.00 | 0.18 | 0.18 | 96 | 1020.4 |
| 20260505005523 | 79 | 134 | 0.9 | 0.9 | 0.00 | 0.18 | 0.18 | 97 | 1020.4 |
| 20260505005020 | 79 | 96 | 0.9 | 1.7 | 0.00 | 0.18 | 0.18 | 97 | 1020.4 |
| 20260505004517 | 79 | 140 | 1.7 | 2.6 | 0.00 | 0.18 | 0.18 | 97 | 1020.2 |
| 20260505004014 | 79 | 110 | 0.9 | 0.9 | 0.00 | 0.18 | 0.18 | 97 | 1020.3 |
| 20260505003511 | 79 | 140 | 1.7 | 1.7 | 0.00 | 0.18 | 0.18 | 97 | 1020.3 |
| 20260505003008 | 79 | 115 | 0.0 | 0.9 | 0.00 | 0.18 | 0.18 | 97 | 1020.2 |
| 20260505002503 | 79 | 158 | 0.9 | 0.9 | 0.00 | 0.18 | 0.18 | 97 | 1020.3 |
| 20260505002002 | 79 | 166 | 1.7 | 1.7 | 0.00 | 0.18 | 0.18 | 96 | 1020.2 |
| 20260505001459 | 79 | 167 | 1.7 | 1.7 | 0.00 | 0.18 | 0.18 | 96 | 1020.2 |
| 20260505000956 | 80 | 160 | 1.7 | 2.6 | 0.00 | 0.18 | 0.18 | 95 | 1020.1 |
| 20260505000454 | 80 | 127 | 0.9 | 1.7 | 0.00 | 0.18 | 0.18 | 94 | 1020.0 |
| 20260504235951 | 79 | 120 | 0.0 | 2.6 | 0.00 | 0.18 | 0.18 | 94 | 1020.2 |
| 20260504235448 | 79 | 143 | 1.7 | 1.7 | 0.00 | 0.18 | 0.18 | 95 | 1020.1 |
| 20260504234944 | 79 | 125 | 0.9 | 3.5 | 0.00 | 0.18 | 0.18 | 95 | 1020.1 |
| 20260504234441 | 79 | 116 | 1.7 | 2.6 | 0.00 | 0.18 | 0.18 | 95 | 1020.0 |
| 20260504233938 | 79 | 148 | 0.9 | 3.5 | 0.00 | 0.18 | 0.18 | 95 | 1019.9 |
| 20260504233434 | 79 | 140 | 0.9 | 0.9 | 0.00 | 0.18 | 0.18 | 96 | 1019.8 |
| 20260504232931 | 79 | 107 | 0.9 | 0.9 | 0.00 | 0.18 | 0.18 | 95 | 1019.8 |
| 20260504232428 | 79 | 119 | 0.0 | 0.0 | 0.00 | 0.18 | 0.18 | 96 | 1019.9 |
| 20260504231925 | 79 | 124 | 0.0 | 0.9 | 0.00 | 0.18 | 0.18 | 96 | 1019.7 |
| 20260504231421 | 79 | 130 | 1.7 | 2.6 | 0.00 | 0.18 | 0.18 | 96 | 1019.7 |
| 20260504230917 | 79 | 134 | 1.7 | 1.7 | 0.00 | 0.18 | 0.18 | 96 | 1019.7 |
| 20260504230415 | 79 | 160 | 2.6 | 3.5 | 0.00 | 0.18 | 0.18 | 95 | 1019.6 |
| 20260504225914 | 79 | 130 | 0.9 | 3.5 | 0.17 | 0.18 | 0.18 | 95 | 1019.7 |
| 20260504225410 | 79 | 137 | 2.6 | 3.5 | 0.17 | 0.18 | 0.18 | 95 | 1019.6 |
| 20260504224907 | 80 | 115 | 0.0 | 2.6 | 0.00 | 0.15 | 0.15 | 94 | 1019.6 |
| 20260504224404 | 80 | 126 | 1.7 | 1.7 | 0.00 | 0.15 | 0.15 | 95 | 1019.4 |
| 20260504223901 | 79 | 103 | 0.9 | 3.5 | 0.00 | 0.15 | 0.15 | 95 | 1019.4 |
| 20260504223356 | 80 | 143 | 0.0 | 0.9 | 0.00 | 0.15 | 0.15 | 95 | 1019.4 |
| 20260504222853 | 79 | 164 | 1.7 | 1.7 | 0.00 | 0.15 | 0.15 | 95 | 1019.3 |
| 20260504222350 | 79 | 117 | 0.0 | 1.7 | 0.00 | 0.15 | 0.15 | 96 | 1019.3 |
| 20260504221849 | 79 | 136 | 0.9 | 1.7 | 0.00 | 0.15 | 0.15 | 96 | 1019.2 |
| 20260504221345 | 79 | 117 | 1.7 | 1.7 | 0.00 | 0.15 | 0.15 | 96 | 1019.3 |
| 20260504220842 | 79 | 119 | 3.5 | 3.5 | 0.00 | 0.15 | 0.15 | 97 | 1019.3 |
| 20260504220339 | 79 | 125 | 1.7 | 1.7 | 0.00 | 0.15 | 0.15 | 97 | 1019.2 |
| 20260504215836 | 78 | 188 | 2.6 | 3.5 | 0.00 | 0.15 | 0.15 | 97 | 1019.2 |
| 20260504215332 | 79 | 151 | 2.6 | 2.6 | 0.00 | 0.15 | 0.15 | 97 | 1019.3 |
| 20260504214828 | 79 | 142 | 0.9 | 1.7 | 0.00 | 0.15 | 0.15 | 98 | 1019.3 |
| 20260504214326 | 79 | 141 | 0.9 | 1.7 | 0.00 | 0.15 | 0.15 | 98 | 1019.3 |
| 20260504213822 | 79 | 133 | 1.7 | 2.6 | 0.00 | 0.15 | 0.15 | 97 | 1019.2 |
| 20260504213318 | 78 | 119 | 0.9 | 1.7 | 0.07 | 0.15 | 0.15 | 98 | 1019.4 |
| 20260504212816 | 79 | 118 | 1.7 | 1.7 | 0.07 | 0.15 | 0.15 | 97 | 1019.3 |
| 20260504212312 | 79 | 130 | 1.7 | 2.6 | 0.05 | 0.14 | 0.14 | 97 | 1019.3 |
| 20260504211810 | 78 | 124 | 1.7 | 3.5 | 0.05 | 0.14 | 0.14 | 97 | 1019.1 |
| 20260504211305 | 79 | 102 | 0.9 | 6.1 | 0.00 | 0.13 | 0.13 | 97 | 1019.1 |
| 20260504210803 | 79 | 68 | 2.6 | 5.2 | 0.00 | 0.13 | 0.13 | 96 | 1019.0 |
| 20260504210300 | 80 | 99 | 0.0 | 2.6 | 0.00 | 0.13 | 0.13 | 96 | 1018.9 |
| 20260504205757 | 79 | 69 | 2.6 | 2.6 | 0.00 | 0.13 | 0.13 | 96 | 1018.9 |
| 20260504205255 | 79 | 119 | 1.7 | 2.6 | 0.00 | 0.13 | 0.13 | 96 | 1019.0 |
| 20260504204753 | 79 | 143 | 0.9 | 3.5 | 0.00 | 0.13 | 0.13 | 97 | 1018.9 |
| 20260504204251 | 79 | 142 | 1.7 | 2.6 | 0.00 | 0.13 | 0.13 | 96 | 1018.9 |
| 20260504203750 | 80 | 125 | 0.0 | 1.7 | 0.00 | 0.13 | 0.13 | 97 | 1019.1 |
| 20260504203247 | 79 | 120 | 1.7 | 1.7 | 0.00 | 0.13 | 0.13 | 96 | 1019.2 |
| 20260504202747 | 79 | 131 | 0.9 | 0.9 | 0.19 | 0.13 | 0.13 | 97 | 1019.1 |
| 20260504202244 | 79 | 142 | 0.9 | 1.7 | 0.73 | 0.13 | 0.13 | 96 | 1019.2 |
| 20260504201741 | 80 | 84 | 2.6 | 2.6 | 0.40 | 0.07 | 0.07 | 94 | 1019.3 |
| 20260504201238 | 81 | 135 | 4.3 | 7.8 | 0.00 | 0.00 | 0.00 | 90 | 1019.3 |
| 20260504200736 | 80 | 146 | 1.7 | 3.5 | 0.00 | 0.00 | 0.00 | 90 | 1019.3 |
| 20260504200232 | 80 | 165 | 1.7 | 3.5 | 0.00 | 0.00 | 0.00 | 92 | 1019.3 |
| 20260504195728 | 79 | 173 | 1.7 | 3.5 | 0.00 | 0.00 | 0.00 | 93 | 1019.2 |
| 20260504195224 | 80 | 176 | 4.3 | 7.8 | 0.00 | 0.00 | 0.00 | 92 | 1019.2 |
| 20260504194722 | 79 | 191 | 5.2 | 6.1 | 0.00 | 0.00 | 0.00 | 92 | 1019.2 |
| 20260504194218 | 80 | 175 | 4.3 | 7.8 | 0.00 | 0.00 | 0.00 | 91 | 1019.4 |
| 20260504193714 | 81 | 196 | 7.0 | 8.7 | 0.00 | 0.00 | 0.00 | 88 | 1019.1 |
| 20260504193212 | 83 | 122 | 5.2 | 12.2 | 0.00 | 0.00 | 0.00 | 84 | 1019.4 |
| 20260504192710 | 86 | 124 | 4.3 | 11.3 | 0.00 | 0.00 | 0.00 | 80 | 1019.2 |
| 20260504192208 | 85 | 144 | 7.0 | 8.7 | 0.00 | 0.00 | 0.00 | 79 | 1019.4 |
| 20260504191706 | 85 | 70 | 4.3 | 12.2 | 0.00 | 0.00 | 0.00 | 81 | 1019.3 |
| 20260504191202 | 86 | 104 | 7.0 | 9.6 | 0.00 | 0.00 | 0.00 | 77 | 1019.2 |
| 20260504190658 | 86 | 77 | 1.7 | 13.0 | 0.00 | 0.00 | 0.00 | 78 | 1019.2 |
| 20260504190154 | 87 | 78 | 1.7 | 5.2 | 0.00 | 0.00 | 0.00 | 76 | 1019.3 |
| 20260504185651 | 86 | 158 | 3.5 | 15.6 | 0.00 | 0.00 | 0.00 | 77 | 1019.3 |
| 20260504185148 | 89 | 201 | 1.7 | 7.8 | 0.00 | 0.00 | 0.00 | 75 | 1019.3 |
| 20260504184644 | 88 | 163 | 1.7 | 3.5 | 0.00 | 0.00 | 0.00 | 75 | 1019.4 |
| 20260504184139 | 86 | 76 | 2.6 | 7.0 | 0.00 | 0.00 | 0.00 | 76 | 1019.3 |
| 20260504183636 | 86 | 53 | 5.2 | 11.3 | 0.00 | 0.00 | 0.00 | 79 | 1019.5 |
| 20260504183134 | 86 | 55 | 3.5 | 6.1 | 0.00 | 0.00 | 0.00 | 77 | 1019.4 |
| 20260504182631 | 86 | 186 | 0.9 | 7.8 | 0.00 | 0.00 | 0.00 | 77 | 1019.7 |
| 20260504182128 | 86 | 178 | 3.5 | 9.6 | 0.00 | 0.00 | 0.00 | 79 | 1019.7 |
| 20260504181626 | 86 | 143 | 3.5 | 7.8 | 0.00 | 0.00 | 0.00 | 78 | 1019.6 |
| 20260504181123 | 85 | 79 | 7.0 | 11.3 | 0.00 | 0.00 | 0.00 | 79 | 1019.7 |
| 20260504180622 | 86 | 70 | 2.6 | 9.6 | 0.00 | 0.00 | 0.00 | 79 | 1019.9 |
| 20260504180121 | 85 | 61 | 3.5 | 8.7 | 0.00 | 0.00 | 0.00 | 81 | 1019.8 |
| 20260504175618 | 86 | 137 | 4.3 | 9.6 | 0.00 | 0.00 | 0.00 | 80 | 1019.8 |
| 20260504175114 | 86 | 126 | 3.5 | 9.6 | 0.00 | 0.00 | 0.00 | 78 | 1020.0 |
| 20260504174612 | 86 | 167 | 3.5 | 8.7 | 0.00 | 0.00 | 0.00 | 80 | 1020.0 |
| 20260504174108 | 85 | 156 | 1.7 | 11.3 | 0.00 | 0.00 | 0.00 | 80 | 1020.1 |
| 20260504173605 | 86 | 36 | 3.5 | 8.7 | 0.00 | 0.00 | 0.00 | 79 | 1020.1 |
| 20260504173103 | 86 | 98 | 3.5 | 11.3 | 0.00 | 0.00 | 0.00 | 77 | 1020.1 |
| 20260504172559 | 87 | 89 | 7.8 | 11.3 | 0.00 | 0.00 | 0.00 | 75 | 1020.4 |
| 20260504172056 | 87 | 57 | 4.3 | 7.8 | 0.00 | 0.00 | 0.00 | 75 | 1020.3 |
| 20260504171552 | 87 | 117 | 5.2 | 8.7 | 0.00 | 0.00 | 0.00 | 75 | 1020.5 |
| 20260504171050 | 86 | 125 | 2.6 | 6.1 | 0.00 | 0.00 | 0.00 | 76 | 1020.3 |
| 20260504170545 | 86 | 84 | 6.1 | 13.0 | 0.00 | 0.00 | 0.00 | 76 | 1020.5 |
| 20260504150929 | 85 | 119 | 9.6 | 14.8 | 0.00 | 0.00 | 0.00 | 76 | 1021.2 |
| 20260504150426 | 85 | 113 | 3.5 | 11.3 | 0.00 | 0.00 | 0.00 | 77 | 1021.2 |